Weather History for Menominee, MI

Change the Weather History Date:

Tuesday, February 19, 2013

  Actual Average Record
Temperature  
Mean Temperature 20 °F -  
Max Temperature 33 °F 34 °F 52 °F (1981)
Min Temperature 8 °F 16 °F -12 °F (1959)
Degree Days  
Heating Degree Days 44    
Moisture  
Dew Point 13 °F    
Average Humidity 77    
Maximum Humidity 100    
Minimum Humidity 53    
Precipitation  
Precipitation 0.06 in - - ()
Sea Level Pressure  
Sea Level Pressure 29.66 in    
Wind  
Wind Speed 11 mph (NW)    
Max Wind Speed 17 mph    
Max Gust Speed 31 mph    
Visibility 6 miles    
Events      
Averages and records for this station are not official NWS values.
T = Trace of Precipitation, MM = Missing Value Source: NWS Daily Summary

Daily Weather History Graph

Daily Weather History Graph

Search for Another Location

Airport:

Trip Planner

Search our weather history database for the weather conditions in past years. The results will help you decide how hot, cold, wet, or windy it might be!

Date:

Astronomy

Feb. 19, 2013 Rise Set
Actual Time 6:44 AM CST 5:24 PM CST
Civil Twilight 6:14 AM CST 5:54 PM CST
Nautical Twilight 5:40 AM CST 6:28 PM CST
Astronomical Twilight 5:06 AM CST 7:02 PM CST
Moon 11:47 AM CST (2/19) 2:24 AM CST (2/19)
Length of Visible Light 11h 39m
Length of Day
10h 39m
Waxing Gibbous, 67% of the Moon is Illuminated
Feb 19
Waxing Gibbous
Feb 25
Full
Mar 4
Last Quarter
Mar 11
New
Mar 19
First Quarter

Hourly Weather History & Observations

Time (CST) Temp. Windchill Dew Point Humidity Pressure Visibility Wind Dir Wind Speed Gust Speed Precip Events Conditions
12:15 AM 30.2 °F 22.6 °F 30.2 °F 100% 29.36 in 1.0 mi NNW 8.1 mph - 0.02 in   Overcast
12:35 AM 32.0 °F 27.5 °F 32.0 °F 100% 29.37 in 1.2 mi NW 4.6 mph - 0.03 in   Overcast
12:55 AM 33.8 °F 27.0 °F 30.2 °F 87% 29.37 in 1.2 mi NW 8.1 mph - 0.05 in   Overcast
1:15 AM 33.8 °F 27.7 °F 32.0 °F 93% 29.36 in 1.5 mi NNW 6.9 mph 17.3 mph N/A   Overcast
1:35 AM 30.2 °F 19.3 °F 30.2 °F 100% 29.37 in 1.5 mi NNW 15.0 mph 31.1 mph 0.01 in   Overcast
1:55 AM 30.2 °F 21.3 °F 30.2 °F 100% 29.37 in 1.8 mi NNW 10.4 mph 18.4 mph 0.01 in   Overcast
2:15 AM 30.2 °F 20.8 °F 28.4 °F 93% 29.37 in 1.8 mi NNW 11.5 mph 20.7 mph N/A   Overcast
2:35 AM 30.2 °F 20.8 °F 28.4 °F 93% 29.36 in 2.0 mi NNW 11.5 mph 21.9 mph N/A   Overcast
2:55 AM 30.2 °F 23.4 °F 28.4 °F 93% 29.36 in 3.0 mi NNW 6.9 mph 17.3 mph N/A   Overcast
3:15 AM 28.4 °F 19.7 °F 26.6 °F 93% 29.36 in 2.0 mi NW 9.2 mph 17.3 mph N/A   Overcast
3:35 AM 30.2 °F 21.3 °F 26.6 °F 86% 29.37 in 3.0 mi NW 10.4 mph 17.3 mph N/A   Overcast
3:55 AM 30.2 °F 20.2 °F 26.6 °F 86% 29.37 in 4.0 mi NW 12.7 mph 18.4 mph N/A   Overcast
4:15 AM 28.4 °F 21.2 °F 26.6 °F 93% 29.38 in 6.0 mi NW 6.9 mph - N/A   Overcast
4:35 AM 28.4 °F 19.1 °F 26.6 °F 93% 29.38 in 7.0 mi NW 10.4 mph - N/A   Overcast
4:55 AM 28.4 °F 19.7 °F 26.6 °F 93% 29.39 in 5.0 mi NW 9.2 mph 16.1 mph N/A   Overcast
5:15 AM 28.4 °F 18.0 °F 24.8 °F 86% 29.41 in 3.0 mi NNW 12.7 mph 26.5 mph N/A   Overcast
5:55 AM 24.8 °F 12.9 °F 21.2 °F 86% 29.44 in 2.0 mi NW 13.8 mph 20.7 mph N/A   Overcast
6:15 AM 23.0 °F 9.2 °F 19.4 °F 86% 29.45 in 2.5 mi NNW 17.3 mph 27.6 mph N/A   Overcast
6:35 AM 21.2 °F 8.3 °F 17.6 °F 86% 29.46 in 3.0 mi NW 13.8 mph 28.8 mph N/A   Overcast
6:55 AM 21.2 °F 8.9 °F 17.6 °F 86% 29.48 in 2.5 mi NNW 12.7 mph 25.3 mph N/A   Overcast
7:15 AM 19.4 °F 7.2 °F 17.6 °F 93% 29.50 in 1.5 mi NNW 11.5 mph 21.9 mph N/A   Overcast
7:35 AM 19.4 °F 6.0 °F 15.8 °F 86% 29.51 in 0.8 mi WNW 13.8 mph 20.7 mph N/A   Overcast
7:55 AM 19.4 °F 5.5 °F 15.8 °F 86% 29.52 in 1.0 mi NW 15.0 mph 27.6 mph N/A   Overcast
8:15 AM 17.6 °F 5.0 °F 15.8 °F 93% 29.53 in 1.0 mi NW 11.5 mph 28.8 mph N/A   Overcast
8:35 AM 17.6 °F 3.7 °F 10.4 °F 73% 29.53 in 1.8 mi NW 13.8 mph 26.5 mph N/A   Overcast
8:55 AM 17.6 °F 3.7 °F 12.2 °F 79% 29.54 in 1.0 mi NW 13.8 mph 27.6 mph N/A   Overcast
9:15 AM 17.6 °F 4.3 °F 12.2 °F 79% 29.56 in 1.8 mi NNW 12.7 mph 24.2 mph N/A   Overcast
9:35 AM 17.6 °F 5.0 °F 10.4 °F 73% 29.57 in 2.0 mi NW 11.5 mph 26.5 mph N/A   Overcast
9:55 AM 17.6 °F 4.3 °F 12.2 °F 79% 29.58 in 3.0 mi NW 12.7 mph 23.0 mph N/A   Overcast
10:15 AM 17.6 °F 2.7 °F 14.0 °F 86% 29.59 in 6.0 mi NNW 16.1 mph 24.2 mph N/A   Overcast
10:35 AM 17.6 °F 2.7 °F 12.2 °F 79% 29.60 in 2.5 mi NNW 16.1 mph 26.5 mph N/A   Overcast
11:15 AM 17.6 °F 2.7 °F 14.0 °F 86% 29.63 in 7.0 mi NNW 16.1 mph 31.1 mph N/A   Overcast
11:35 AM 17.6 °F 5.0 °F 10.4 °F 73% 29.64 in 8.0 mi NNW 11.5 mph 19.6 mph N/A   Overcast
12:15 PM 19.4 °F 6.0 °F 12.2 °F 74% 29.66 in 5.0 mi NNW 13.8 mph 23.0 mph N/A   Overcast
12:35 PM 19.4 °F 5.0 °F 10.4 °F 68% 29.66 in 8.0 mi NNW 16.1 mph 25.3 mph N/A   Overcast
12:55 PM 19.4 °F 7.2 °F 10.4 °F 68% 29.68 in 8.0 mi NNW 11.5 mph 24.2 mph N/A   Overcast
1:15 PM 19.4 °F 6.0 °F 10.4 °F 68% 29.68 in 10.0 mi NNW 13.8 mph 23.0 mph N/A   Overcast
1:35 PM 19.4 °F 6.6 °F 8.6 °F 63% 29.70 in 10.0 mi NNW 12.7 mph 23.0 mph N/A   Overcast
1:55 PM 19.4 °F 5.5 °F 8.6 °F 63% 29.71 in 9.0 mi NW 15.0 mph 21.9 mph N/A   Overcast
2:15 PM 19.4 °F 8.6 °F 10.4 °F 68% 29.73 in 7.0 mi NW 9.2 mph 23.0 mph N/A   Overcast
2:35 PM 19.4 °F 6.6 °F 10.4 °F 68% 29.74 in 7.0 mi NW 12.7 mph 19.6 mph N/A   Overcast
2:55 PM 17.6 °F 5.0 °F 8.6 °F 68% 29.76 in 10.0 mi NNW 11.5 mph 24.2 mph N/A   Overcast
3:15 PM 17.6 °F 2.7 °F 6.8 °F 63% 29.77 in 6.0 mi NNW 16.1 mph 28.8 mph N/A   Overcast
3:35 PM 17.6 °F 6.4 °F 8.6 °F 68% 29.79 in 10.0 mi NW 9.2 mph 24.2 mph N/A   Overcast
3:55 PM 17.6 °F 3.7 °F 6.8 °F 63% 29.80 in 9.0 mi NNW 13.8 mph 27.6 mph N/A   Overcast
4:15 PM 17.6 °F 4.3 °F 3.2 °F 53% 29.82 in 10.0 mi NW 12.7 mph 26.5 mph N/A   Overcast
4:35 PM 17.6 °F 5.0 °F 5.0 °F 58% 29.84 in 10.0 mi NNW 11.5 mph 25.3 mph N/A   Overcast
4:55 PM 15.8 °F 0.9 °F 5.0 °F 62% 29.85 in 10.0 mi NNW 15.0 mph 27.6 mph N/A   Overcast
5:15 PM 15.8 °F 1.4 °F 6.8 °F 68% 29.86 in 10.0 mi NW 13.8 mph 20.7 mph N/A   Overcast
6:35 PM 12.2 °F -2.5 °F 1.4 °F 62% 29.93 in 10.0 mi NNW 12.7 mph 23.0 mph N/A   Mostly Cloudy
6:55 PM 12.2 °F -3.1 °F 1.4 °F 62% 29.94 in 10.0 mi NNW 13.8 mph 19.6 mph N/A   Overcast
7:15 PM 12.2 °F -1.0 °F 1.4 °F 62% 29.95 in 10.0 mi NW 10.4 mph 20.7 mph N/A   Mostly Cloudy
7:35 PM 12.2 °F -1.8 °F 1.4 °F 62% 29.95 in 10.0 mi NW 11.5 mph 18.4 mph N/A   Scattered Clouds
7:55 PM 10.4 °F -0.4 °F 1.4 °F 67% 29.97 in 10.0 mi NW 6.9 mph - N/A   Mostly Cloudy
8:15 PM 10.4 °F -2.4 °F 1.4 °F 67% 29.98 in 10.0 mi NW 9.2 mph - N/A   Overcast
8:35 PM 10.4 °F 0.8 °F 1.4 °F 67% 29.98 in 10.0 mi NW 5.8 mph - N/A   Overcast
9:15 PM 10.4 °F 0.8 °F 1.4 °F 67% 29.99 in 10.0 mi WNW 5.8 mph - N/A   Overcast
9:35 PM 10.4 °F 0.8 °F 1.4 °F 67% 30.00 in 10.0 mi WNW 5.8 mph - N/A   Overcast
9:55 PM 8.6 °F -1.3 °F -0.4 °F 67% 30.00 in 10.0 mi WNW 5.8 mph - N/A   Overcast
10:15 PM 8.6 °F -3.7 °F 1.4 °F 73% 30.01 in 10.0 mi WNW 8.1 mph - N/A   Overcast
10:35 PM 8.6 °F -2.6 °F 3.2 °F 79% 30.01 in 10.0 mi West 6.9 mph - N/A   Overcast
10:55 PM 8.6 °F -3.7 °F -0.4 °F 67% 30.02 in 10.0 mi West 8.1 mph - N/A   Overcast
11:15 PM 8.6 °F -2.6 °F 1.4 °F 73% 30.03 in 10.0 mi WNW 6.9 mph - N/A   Mostly Cloudy
11:35 PM 8.6 °F -1.3 °F 3.2 °F 79% 30.04 in 10.0 mi WNW 5.8 mph - N/A   Partly Cloudy
11:55 PM 8.6 °F -2.6 °F 1.4 °F 73% 30.04 in 10.0 mi West 6.9 mph - N/A   Mostly Cloudy